sat.trackr.live / text

‹ back to catalog

STARLINK-32389

NORAD 61549 · 2024-184T

PAYLOAD ACTIVE UNKNOWN

§ Identity

Operator
Country
US
Launch date
2024-10-15
Launch site
AFWTR
Launch vehicle
Mass (kg)
RCS (m²)

Purposes: comms

External: N2YO · Heavens-Above · Gunter

§ Orbital elements

Epoch: 2026-05-24T22:58:21.712800Z

Period
94.11 min
Inclination
53.1617°
Eccentricity
0.0001103
Mean motion
15.30191568 rev/d
Perigee alt
474.5 km
Apogee alt
476.0 km
Semi-major
6,853.4 km
B*
1.3771e-5
RAAN
19.7057°
Arg perigee
94.7094°
Mean anomaly
265.4033°
Rev number
9,018

§ Raw data

STARLINK-323891 61549U 24184T   26144.95719575  .00000049  00000+0  13771-4 0  99942 61549  53.1617  19.7057 0001103  94.7094 265.4033 15.30191568 90187

JSON: /api/v1/satellites/61549 · /tle

For live sub-satellite position, see the globe view (requires WebGL).

§ Visibility from observer

Set your observer location to see the next 7 days of passes ≥ 10°. The values pass through the URL so the page stays shareable.

No JS? Fill the form by hand. The geolocation button needs JavaScript.